C/2016 T2 ( Matheny )

Japanese version
Home page
Updated on May 22, 2017

---------------------------------------------------------------------

* Profile

Discovery Date October 10, 2016
Magnitude 18.6 mag
Discoverer Rose G. Matheny (Mount Lemmon Survey)

* Pictures

* Orbital Elements

Epoch 2017 Jan. 7.0 TT = JDT 2457760.5
T 2016 Dec. 29.10320 TT                                 MPCW
q   1.9078306            (2000.0)            P               Q
z  +0.0098104      Peri.   92.28355     +0.01662747     -0.93560240
 +/-0.0000068      Node   339.09878     -0.25048270     +0.33756743
e   0.9812835      Incl.   81.31142     +0.96797828     +0.10342329
From 155 observations 2016 Oct. 10-2017 Mar. 24, mean residual 0".6.

* Magnitudes Graph

        m1 = 13.0 + 5 log d + 10.0 log r

---------------------------------------------------------------------

The orbital elements are published on M.P.E.C. 2017-J52.
The magnitudes graphs are made with Comet for Windows.

---------------------------------------------------------------------

Copyright(C) Seiichi Yoshida (comet@aerith.net). All rights reserved.